www.pogodaiklimat.ru

Погода и климат >> Архив погоды >> Малайзия >> Нагорье Кэмерон


ПОГОДА на Нагорье Кэмерон

  • Прогноз погоды на Нагорье Кэмерон
  • Монитор погоды на Нагорье Кэмерон

АРХИВ ПОГОДЫ на Нагорье Кэмерон

Время (UTC), дата Ветер
(напр.,м/с)
 
Видим.   Явления Облачность Т
(С)
Тd
(С)
f
(%)
Тe
(С)
Тes
(С)
Комфортность P
(гПа)
Po
(гПа)
Тmin
(С)
Tmax
(С)
R
(мм)
R24
(мм)
S
(см)
00 13.08 штиль 0 4000 м дымка 9/5
[Sc Ac trans Ci sp]
+16.0 +15.7 98 +16 +16 1015.4 847.2 +15.0
06 13.08 З 2 9000 м мгла 9/6 120 м
[Cb calv Ac trans Ci sp]
+22.2 +18.1 78 +27 +32 душно 1013.7 847.7
12 13.08 ЮВ 1 н/о н/о +19.2 +17.9 92 +22 +22 комфорт 1013.8 847.3 +23.2
18 13.08 З 2 н/о н/о +17.9 +16.6 92 +19 +19 1015.7 848.1
00 14.08 штиль 0 13 км 10/1 60 м
[Sc Ac As Cs]
+16.1 +15.2 94 +16 +16 1016.6 848.0 +15.9 3
06 14.08 З 3 10 км мгла 9/5 300 м
[Cu med, cong Ac trans Ci sp]
+22.8 +18.5 77 +29 +34 очень
душно
1013.0 847.4
12 14.08 ЮВ 1 н/о н/о +18.3 +17.6 96 +20 +20 1014.1 847.3 +23.2 3
18 14.08 СЗ 1 н/о н/о +17.3 +16.9 97 +18 +18 1016.4 848.7 34
00 15.08 СЗ 2 6000 м дымка 9/4
[Sc Ac As Ci sp]
+16.6 +16.2 97 +17 +17 1016.7 848.5 +16.1 38
06 15.08 З 2 7000 м слаб. ливневой дождь 9/6
[Cu med, cong Ac lent Ci sp]
+18.7 +17.9 95 +20 +26 1015.0 848.2 0.0
12 15.08 штиль 0 н/о н/о +16.3 +14.5 89 +16 +16 1015.7 846.9 +20.0 14
18 15.08 СЗ 5 н/о н/о +16.5 +14.2 86 +16 +16 1016.0 847.1
00 16.08 штиль 0 15 км 9/1 120 м
[Cb calv Ac As Cs]
+16.1 +15.2 94 +16 +17 1016.0 847.5 +15.7 14
06 16.08 З 3 14 км мгла 9/6 120 м
[Cu Sc Ac trans Ci sp]
+20.6 +17.8 84 +25 +29 комфорт 1014.2 847.8
12 16.08 ЮВ 1 н/о н/о +17.8 +17.1 96 +19 +19 1014.1 847.0 +21.8 12
18 16.08 Ю 1 н/о н/о +16.9 +16.5 97 +18 +18 1015.8 848.0
00 17.08 В 2 7000 м дымка 9/5
[Cu Sc Ac trans Ci sp]
+16.5 +15.9 96 +17 +17 1016.0 847.8 +16.1 12
06 17.08 ЮЗ 2 14 км мгла 8/4 300 м
[Cu med, cong Ac trans Ci fib]
+23.6 +16.6 65 +27 +36 жарко 1013.7 847.3
12 17.08 ЮВ 2 н/о н/о +18.9 +17.9 94 +21 +21 комфорт 1013.9 847.3 +24.9 1
18 17.08 СЗ 2 н/о н/о +16.6 +15.4 93 +17 +17 1016.7 848.2 0.4
00 18.08 СВ 2 8000 м 9/3
[Cb cap Ac As Ci sp]
+16.0 +14.9 93 +16 +16 1017.2 848.3 +15.6 2
06 18.08 СЗ 2 10 км мгла 9/8 120 м
[Cu Sc Ac trans Ci sp]
+21.9 +18.3 80 +27 +30 душно 1013.6 847.7
12 18.08 В 1 н/о н/о +17.4 +16.1 92 +18 +18 1016.2 848.2 +22.5 0.4
18 18.08 СЗ 3 н/о н/о +16.7 +15.7 94 +16 +16 1016.7 848.3
00 19.08 СЗ 2 6000 м дымка 9/3
[Sc Ac As Ci sp]
+15.7 +15.1 96 +16 +16 1016.9 848.1 +15.5 0.4
06 19.08 З 2 8000 м дождь 9/8
[Cu Sc Ac trans Ci sp]
+19.7 +18.3 92 +23 +27 комфорт 1013.4 847.2 2
12 19.08 В 1 н/о н/о +18.9 +17.9 94 +21 +21 комфорт 1013.1 846.7 +21.5 0.8
18 19.08 СВ 1 н/о н/о +16.5 +16.1 97 +17 +17 1015.5 847.5

 

Местоположение метеостанции Нагорье Кэмерон (Малайзия): широта 4.47 долгота 101.37 высота над уровнем моря 1545 м.

В архиве по умолчанию представлена погода на Нагорье Кэмерон за последнюю неделю. Архивные данные за месяц целиком и за предыдущие месяцы, начиная с января 2011 года, Вы можете получить, выбрав интересующий диапазон дат из раскрывающегося списка и нажав кнопку "Ввод!".


*Определитесь, кто Вы:
робот инопланетянин человек

Внимание! Время в таблицах - всемирное. Для получения местного времени необходимо прибавить поправку, которая равна 7 ч.

Смотрите также архив погоды в соседних городах и на ближайших метеорологических станциях:

Погода в Ипохе (Малайзия) (32 км)
Погода в Ситаване (Малайзия) (79 км)
Погода в Куала-Лумпуре (Малайзия) (151 км)
Погода в Пенанге (Малайзия) (154 км)
Погода на Авиабазе Баттерворт (Малайзия) (156 км)
Погода в Куала-Лумпур аэропорту (Малайзия) (198 км)
Погода в Кота-Бхару (Малайзия) (214 км)
Погода в Куала-Тренггану (Малайзия) (217 км)
Погода в Куантане (Малайзия) (218 км)
Погода в Алор Стар (Малайзия) (220 км)

Пояснения к столбцам:

Ветер - указаны скорость ветра в м/с - средняя за 10 мин, порывы в срок и между сроками (в фигурных скобках) и направление, откуда дует ветер: С - северный, СВ - северо-восточный, В - восточный, ЮВ - юго-восточный, Ю - южный, ЮЗ - юго-западный, З - западный, СЗ - северо-западный.
Видимость - горизонтальная дальность видимости в метрах или километрах. При видимости от 1 до 10 км при отсутствии осадков обычно наблюдается дымка, при ухудшении видимости до 1 км и менее - туман. В сухую погоду видимость может ухудшаться дымом, пылью или мглою.
Явления - указаны атмосферные явления, наблюдавшиеся в срок или в последний час перед сроком; фигурными скобками обозначены явления, наблюдавшиеся между сроками (за 1-3 часа до срока); квадратными скобками обозначены град или гололедные отложения с указанием их диаметра в мм.
Облачность - указаны через наклонную черту общая и нижняя облачность в баллах и высота нижней границы облаков в метрах; квадратными скобками обозначены формы облаков: Ci - перистые, Cs - перисто-слоистые, Cc - перисто-кучевые, Ac - высококучевые, As - высокослоистые, Sc - слоисто-кучевые, Ns - слоисто-дождевые, Cu - кучевые, Cb - кучево-дождевые. Подробнее классификацию облаков см. в Атласе облаков (PDF).
T - Температура воздуха - температура, измеренная на высоте 2 м над землей.
Td - Температура точки росы - температура, при понижении до которой содержащийся в воздухе водяной пар достигнет насыщения.
f - Относительная влажность воздуха - влажноcть воздуха, измеренная на высоте 2 м над землей.
Te - Эффективная температура - температура, которую ощущает одетый по сезону человек в тени. Характеристика душности погоды. При расчете учитывается влияние влажности воздуха и скорости ветра на теплоощущения человека.
Tes - Эффективная температура на солнце - температура, которую ощущает человек, с поправкой на солнечный нагрев. Характеристика знойности погоды. Зависит от высоты солнца над горизонтом, облачности и скорости ветра. Ночью, в пасмурную погоду, а также при ветре 12 м/с и более поправка равна нулю.
P - Атмосферное давление - приведенное к уровню моря атмосферное давление.
Po - Атмосферное давление - измеренное на уровне метеостанции атмосферное давление.
Tmin - Минимальная температура - минимум температуры воздуха на высоте 2 м над землей.
Tmax - Максимальная температура - максимум температуры воздуха на высоте 2 м над землей.
R - Количество осадков - Количество выпавших осадков за период времени, мм. При наведении курсора мыши на число - период времени, за который выпало указанное количество осадков.
R24 - Количество осадков - Количество выпавших осадков за 24 часа, мм.
S - Снежный покров - Высота снежного покрова, см. При наведении курсора мыши на число - состояние снежного покрова и степень покрытия местности в баллах.